N5CSU Weather Reports


time (UTC)temp
C
wind
direction
speed
KPH
gust
KPH
rain 1hr
cm
rain 24hr
cm
rain mn
cm
humidity
%
barometer
mb
20260505051823 22 188 0.0 1.6 0.00 0.00 0.00 77 1006.4
20260505051320 22 192 0.0 0.0 0.00 0.00 0.00 77 1006.7
20260505050818 22 179 1.6 1.6 0.00 0.00 0.00 77 1006.7
20260505050317 22 197 1.6 3.2 0.00 0.00 0.00 77 1006.6
20260505041746 23 187 0.0 0.0 0.00 0.00 0.00 75 1006.9
20260505041243 23 209 1.6 1.6 0.00 0.00 0.00 75 1006.8
20260505040740 23 221 0.0 0.0 0.00 0.00 0.00 75 1006.8
20260505040238 23 185 0.0 0.0 0.00 0.00 0.00 75 1006.9
20260505035734 23 199 0.0 0.0 0.00 0.00 0.00 75 1006.9
20260505035230 22 206 0.0 0.0 0.00 0.00 0.00 75 1006.7
20260505034727 23 186 0.0 0.0 0.00 0.00 0.00 75 1006.7
20260505034224 22 194 0.0 0.0 0.00 0.00 0.00 75 1006.7
20260505033721 22 207 0.0 0.0 0.00 0.00 0.00 75 1006.7
20260505033219 23 192 0.0 0.0 0.00 0.00 0.00 75 1006.7
20260505032717 23 210 0.0 0.0 0.00 0.00 0.00 74 1006.8
20260505032212 23 191 0.0 0.0 0.00 0.00 0.00 74 1006.8
20260505031710 23 198 0.0 0.0 0.00 0.00 0.00 74 1007.0
20260505031206 23 203 0.0 0.0 0.00 0.00 0.00 73 1007.1
20260505030703 23 192 0.0 0.0 0.00 0.00 0.00 73 1007.1
20260505030159 23 209 0.0 0.0 0.00 0.00 0.00 73 1006.9
20260505025655 23 205 0.0 0.0 0.00 0.00 0.00 73 1006.9
20260505025153 23 171 0.0 1.6 0.00 0.00 0.00 72 1007.0
20260505024651 23 159 1.6 1.6 0.00 0.00 0.00 72 1006.8
20260505024147 23 199 0.0 0.0 0.00 0.00 0.00 72 1006.9
20260505023645 23 157 0.0 0.0 0.00 0.00 0.00 72 1006.9
20260505023143 23 205 0.0 0.0 0.00 0.00 0.00 71 1006.5
20260505022640 23 195 0.0 0.0 0.00 0.00 0.00 71 1006.5
20260505022137 23 206 0.0 0.0 0.00 0.00 0.00 71 1006.3
20260505021633 23 173 0.0 0.0 0.00 0.00 0.00 70 1006.6
20260505021130 23 190 0.0 0.0 0.00 0.00 0.00 71 1006.7
20260505020626 23 239 3.2 3.2 0.00 0.00 0.00 71 1006.5
20260505020122 23 307 0.0 1.6 0.00 0.00 0.00 70 1006.3
20260505015619 23 203 0.0 0.0 0.00 0.00 0.00 70 1006.7
20260505015111 23 190 1.6 1.6 0.00 0.00 0.00 70 1006.4
20260505014607 24 195 0.0 0.0 0.00 0.00 0.00 69 1006.5
20260505014104 23 192 0.0 0.0 0.00 0.00 0.00 70 1006.6
20260505013602 24 199 0.0 0.0 0.00 0.00 0.00 69 1006.6
20260505013059 24 199 0.0 0.0 0.00 0.00 0.00 69 1006.6
20260505012557 24 146 1.6 3.2 0.00 0.00 0.00 69 1006.6
20260505012054 24 208 0.0 0.0 0.00 0.00 0.00 69 1006.7
20260505011549 24 205 0.0 0.0 0.00 0.00 0.00 69 1006.6
20260505011047 25 206 0.0 0.0 0.00 0.00 0.00 68 1006.5
20260505010542 25 229 3.2 3.2 0.00 0.00 0.00 67 1006.5
20260505010039 25 193 0.0 0.0 0.00 0.00 0.00 67 1006.5
20260505005535 25 46 1.6 1.6 0.00 0.00 0.00 67 1006.7
20260505005032 25 170 1.6 3.2 0.00 0.00 0.00 66 1006.6
20260505004529 25 188 0.0 0.0 0.00 0.00 0.00 66 1006.5
20260505004026 25 175 3.2 4.8 0.00 0.00 0.00 66 1006.6
20260505003523 25 199 0.0 1.6 0.00 0.00 0.00 65 1006.5
20260505003020 25 171 3.2 3.2 0.00 0.00 0.00 65 1006.8
20260505002515 25 172 0.0 0.0 0.00 0.00 0.00 66 1006.6
20260505002014 25 217 1.6 1.6 0.00 0.00 0.00 66 1006.7
20260505001511 25 188 0.0 1.6 0.00 0.00 0.00 65 1006.9
20260505001008 25 231 1.6 1.6 0.00 0.00 0.00 65 1007.0
20260505000506 25 193 1.6 3.2 0.00 0.00 0.00 65 1006.7
20260505000003 25 194 0.0 0.0 0.00 0.00 0.00 64 1006.9
20260504235459 25 215 4.8 6.4 0.00 0.00 0.00 64 1006.9
20260504234956 25 186 0.0 0.0 0.00 0.00 0.00 64 1007.1
20260504234453 25 186 0.0 1.6 0.00 0.00 0.00 64 1007.2
20260504233949 25 203 3.2 4.8 0.00 0.00 0.00 63 1007.2
20260504233445 25 240 3.2 4.8 0.00 0.00 0.00 63 1007.1
20260504232943 25 197 0.0 0.0 0.00 0.00 0.00 63 1007.0
20260504232439 25 198 3.2 3.2 0.00 0.00 0.00 63 1007.1
20260504231937 26 208 0.0 1.6 0.00 0.00 0.00 63 1007.1
20260504231433 26 197 1.6 3.2 0.00 0.00 0.00 62 1007.0
20260504230929 26 180 1.6 1.6 0.00 0.00 0.00 63 1007.2
20260504230426 26 211 0.0 0.0 0.00 0.00 0.00 62 1007.3
20260504225925 26 172 1.6 3.2 0.00 0.00 0.00 62 1007.4
20260504225422 26 184 1.6 1.6 0.00 0.00 0.00 62 1007.1
20260504224919 26 179 3.2 4.8 0.00 0.00 0.00 62 1007.4
20260504224415 26 174 1.6 3.2 0.00 0.00 0.00 61 1007.3
20260504223913 26 240 0.0 1.6 0.00 0.00 0.00 61 1007.3
20260504223408 26 179 1.6 3.2 0.00 0.00 0.00 62 1007.4
20260504222904 26 187 3.2 3.2 0.00 0.00 0.00 61 1007.3
20260504222401 26 171 0.0 1.6 0.00 0.00 0.00 61 1007.4
20260504221900 26 176 1.6 3.2 0.00 0.00 0.00 61 1007.4
20260504221356 26 197 1.6 3.2 0.00 0.00 0.00 61 1007.7
20260504220854 26 189 0.0 0.0 0.00 0.00 0.00 61 1007.6
20260504220350 26 188 0.0 0.0 0.00 0.00 0.00 61 1007.8
20260504215847 26 198 0.0 1.6 0.00 0.00 0.00 60 1007.7
20260504215343 26 189 1.6 1.6 0.00 0.00 0.00 60 1007.9
20260504214840 26 176 4.8 4.8 0.00 0.00 0.00 59 1007.8
20260504214337 26 207 1.6 3.2 0.00 0.00 0.00 59 1007.7
20260504213833 26 177 3.2 4.8 0.00 0.00 0.00 60 1008.0
20260504213329 26 255 1.6 1.6 0.00 0.00 0.00 60 1008.1
20260504212827 26 171 1.6 3.2 0.00 0.00 0.00 59 1008.0
20260504212323 27 197 3.2 4.8 0.00 0.00 0.00 58 1008.3
20260504211821 26 226 1.6 1.6 0.00 0.00 0.00 59 1008.3
20260504211316 26 198 0.0 0.0 0.00 0.00 0.00 60 1008.4
20260504210814 26 194 0.0 0.0 0.00 0.00 0.00 60 1008.5
20260504210311 26 253 0.0 0.0 0.00 0.00 0.00 60 1008.4
20260504205808 26 203 0.0 1.6 0.00 0.00 0.00 60 1008.7
20260504205306 26 193 6.4 9.7 0.00 0.00 0.00 60 1008.9
20260504204804 26 192 3.2 3.2 0.00 0.00 0.00 60 1008.8
20260504204302 26 196 3.2 3.2 0.00 0.00 0.00 60 1008.9
20260504203801 26 219 1.6 3.2 0.00 0.00 0.00 60 1009.2
20260504203258 26 204 1.6 1.6 0.00 0.00 0.00 60 1009.0
20260504202758 26 200 0.0 0.0 0.00 0.00 0.00 60 1009.4
20260504202256 26 225 0.0 0.0 0.00 0.00 0.00 60 1009.4
20260504201753 26 312 1.6 3.2 0.00 0.00 0.00 59 1009.6
20260504201250 26 208 3.2 4.8 0.00 0.00 0.00 59 1009.6
20260504200748 26 201 1.6 3.2 0.00 0.00 0.00 58 1009.8
20260504200243 26 190 0.0 0.0 0.00 0.00 0.00 59 1009.9
20260504195740 26 186 1.6 3.2 0.00 0.00 0.00 57 1009.9
20260504195236 26 228 1.6 1.6 0.00 0.00 0.00 58 1010.4
20260504194733 26 204 1.6 1.6 0.00 0.00 0.00 57 1010.0
20260504194229 26 211 1.6 6.4 0.00 0.00 0.00 57 1010.2
20260504193726 26 223 0.0 1.6 0.00 0.00 0.00 59 1010.2
20260504193223 26 199 0.0 0.0 0.00 0.00 0.00 58 1010.3
20260504192722 26 195 1.6 3.2 0.00 0.00 0.00 58 1010.4
20260504192219 25 175 3.2 4.8 0.00 0.00 0.00 57 1010.6
20260504191718 25 204 0.0 1.6 0.00 0.00 0.00 58 1010.7
20260504191214 26 167 3.2 4.8 0.00 0.00 0.00 56 1010.6
20260504190709 26 299 6.4 9.7 0.00 0.00 0.00 55 1010.6
20260504190206 25 150 1.6 4.8 0.00 0.00 0.00 56 1010.8
20260504185703 25 201 1.6 1.6 0.00 0.00 0.00 57 1010.8
20260504185159 25 188 0.0 0.0 0.00 0.00 0.00 57 1010.8
20260504184656 25 194 4.8 6.4 0.00 0.00 0.00 56 1010.9
20260504184150 25 221 3.2 6.4 0.00 0.00 0.00 55 1010.9
20260504183647 25 179 3.2 3.2 0.00 0.00 0.00 58 1011.0
20260504183145 25 187 4.8 4.8 0.00 0.00 0.00 55 1011.0
20260504182643 25 185 3.2 4.8 0.00 0.00 0.00 56 1011.1
20260504182140 25 171 1.6 3.2 0.00 0.00 0.00 55 1011.5
20260504181637 25 203 1.6 1.6 0.00 0.00 0.00 55 1011.4
20260504181135 25 208 0.0 1.6 0.00 0.00 0.00 56 1011.5
20260504180634 25 215 0.0 0.0 0.00 0.00 0.00 55 1011.5
20260504180132 25 177 6.4 11.3 0.00 0.00 0.00 53 1011.3
20260504175629 25 235 1.6 3.2 0.00 0.00 0.00 54 1011.6
20260504175125 25 195 0.0 1.6 0.00 0.00 0.00 53 1011.9
20260504174624 25 201 0.0 1.6 0.00 0.00 0.00 52 1011.9
20260504174120 25 171 0.0 1.6 0.00 0.00 0.00 55 1011.9
20260504173617 25 193 1.6 3.2 0.00 0.00 0.00 53 1011.8
20260504173115 25 192 1.6 1.6 0.00 0.00 0.00 53 1012.0
20260504172611 25 286 1.6 1.6 0.00 0.00 0.00 53 1012.1
20260504172108 24 192 0.0 0.0 0.00 0.00 0.00 51 1012.0
20260504171604 24 173 1.6 1.6 0.00 0.00 0.00 53 1012.2
20260504171101 24 196 1.6 3.2 0.00 0.00 0.00 52 1012.2
20260504170557 24 217 1.6 3.2 0.00 0.00 0.00 53 1012.4
20260504150941 21 174 3.2 4.8 0.00 0.00 0.00 65 1013.6
20260504150437 21 178 1.6 3.2 0.00 0.00 0.00 66 1013.8
20260504140904 19 135 3.2 4.8 0.00 0.00 0.00 71 1014.2
20260504140400 19 176 3.2 3.2 0.00 0.00 0.00 71 1014.1
20260504130325 17 176 0.0 0.0 0.00 0.00 0.00 76 1014.1
20260504120248 17 208 0.0 1.6 0.00 0.00 0.00 75 1013.7
20260504110716 17 195 0.0 0.0 0.00 0.00 0.00 73 1013.5
20260504110212 17 174 0.0 0.0 0.00 0.00 0.00 72 1013.6
20260504100136 17 205 0.0 0.0 0.00 0.00 0.00 73 1014.0
20260504081529 17 189 0.0 0.0 0.00 0.00 0.00 68 1014.3
20260504081025 17 198 0.0 0.0 0.00 0.00 0.00 68 1014.4
20260504080522 17 172 0.0 0.0 0.00 0.00 0.00 68 1014.6